TimeEEST,TemperatureF,Dew PointF,Humidity,Sea Level PressureIn,VisibilityMPH,Wind Direction,Wind SpeedMPH,Gust SpeedMPH,PrecipitationIn,Events,Conditions,WindDirDegrees,DateUTC
12:20 AM,62.6,51.8,68,30.01,6.2,ESE,4.6,-,N/A,,Mostly Cloudy,110,2012-10-22 21:20:00
12:50 AM,62.6,51.8,68,30.01,6.2,ESE,4.6,-,N/A,,Mostly Cloudy,110,2012-10-22 21:50:00
1:20 AM,62.6,51.8,68,30.04,6.2,ESE,5.8,-,N/A,,Mostly Cloudy,110,2012-10-22 22:20:00
1:50 AM,60.8,51.8,72,30.04,6.2,Variable,3.5,-,N/A,,Mostly Cloudy,0,2012-10-22 22:50:00
2:20 AM,60.8,51.8,72,30.04,6.2,ESE,4.6,-,N/A,,Mostly Cloudy,110,2012-10-22 23:20:00
2:50 AM,60.8,51.8,72,30.04,6.2,ESE,5.8,-,N/A,,Mostly Cloudy,110,2012-10-22 23:50:00
3:00 AM,62,52,61,30.04,6,ESE,5.8,,,,Scattered Clouds,110,2012-10-23 00:00:00
3:20 AM,60.8,51.8,72,30.01,6.2,Calm,Calm,-,N/A,,Mostly Cloudy,0,2012-10-23 00:20:00
3:50 AM,60.8,51.8,72,30.01,6.2,Calm,Calm,-,N/A,,Mostly Cloudy,0,2012-10-23 00:50:00
4:20 AM,62.6,51.8,68,30.01,6.2,Calm,Calm,-,N/A,,Mostly Cloudy,0,2012-10-23 01:20:00
4:50 AM,60.8,51.8,72,30.01,6.2,Calm,Calm,-,N/A,,Mostly Cloudy,0,2012-10-23 01:50:00
5:20 AM,59.0,51.8,77,30.01,6.2,Calm,Calm,-,N/A,,Mostly Cloudy,0,2012-10-23 02:20:00
5:50 AM,59.0,51.8,77,30.01,6.2,Calm,Calm,-,N/A,,Partly Cloudy,0,2012-10-23 02:50:00
6:20 AM,57.2,51.8,82,30.01,6.2,Calm,Calm,-,N/A,,Partly Cloudy,0,2012-10-23 03:20:00
6:50 AM,57.2,51.8,82,30.01,6.2,Variable,3.5,-,N/A,,Partly Cloudy,0,2012-10-23 03:50:00
7:20 AM,55.4,51.8,88,30.01,6.2,Variable,3.5,-,N/A,,Scattered Clouds,0,2012-10-23 04:20:00
7:50 AM,59.0,51.8,77,30.01,6.2,Variable,2.3,-,N/A,,Scattered Clouds,0,2012-10-23 04:50:00
8:20 AM,62.6,50.0,63,30.01,6.2,Variable,2.3,-,N/A,,Scattered Clouds,0,2012-10-23 05:20:00
8:50 AM,66.2,48.2,52,30.04,6.2,NNW,9.2,-,N/A,,Scattered Clouds,340,2012-10-23 05:50:00
9:00 AM,67,48,39,30.04,6,NNW,9.2,,,,Partly Cloudy,340,2012-10-23 06:00:00
9:20 AM,64.4,50.0,59,30.04,6.2,WNW,10.4,-,N/A,,Scattered Clouds,290,2012-10-23 06:20:00
9:50 AM,66.2,46.4,49,30.04,6.2,NNW,5.8,-,N/A,,Mostly Cloudy,340,2012-10-23 06:50:00
10:20 AM,66.2,46.4,49,30.04,6.2,NNW,11.5,-,N/A,,Mostly Cloudy,340,2012-10-23 07:20:00
10:50 AM,68.0,46.4,46,30.04,6.2,NNW,9.2,-,N/A,,Mostly Cloudy,330,2012-10-23 07:50:00
11:20 AM,68.0,50.0,52,30.04,6.2,NW,11.5,-,N/A,,Mostly Cloudy,310,2012-10-23 08:20:00
11:50 AM,68.0,48.2,49,30.04,6.2,NW,11.5,-,N/A,,Mostly Cloudy,320,2012-10-23 08:50:00
12:20 PM,69.8,48.2,46,30.04,6.2,NW,10.4,-,N/A,,Mostly Cloudy,310,2012-10-23 09:20:00
12:50 PM,69.8,48.2,46,30.04,6.2,WNW,8.1,-,N/A,,Mostly Cloudy,290,2012-10-23 09:50:00
1:20 PM,71.6,48.2,43,30.04,6.2,WNW,8.1,-,N/A,,Scattered Clouds,290,2012-10-23 10:20:00
1:50 PM,73.4,46.4,38,30.04,6.2,WNW,6.9,-,N/A,,Scattered Clouds,300,2012-10-23 10:50:00
2:20 PM,73.4,46.4,38,30.04,6.2,West,5.8,-,N/A,,Scattered Clouds,280,2012-10-23 11:20:00
2:50 PM,71.6,46.4,41,30.04,6.2,Variable,3.5,-,N/A,,Scattered Clouds,0,2012-10-23 11:50:00
3:00 PM,72,46,29,30.04,6,,3.5,,,,Partly Cloudy,,2012-10-23 12:00:00
3:20 PM,73.4,46.4,38,30.01,6.2,Variable,3.5,-,N/A,,Mostly Cloudy,0,2012-10-23 12:20:00
3:50 PM,73.4,46.4,38,30.01,6.2,Variable,3.5,-,N/A,,Mostly Cloudy,0,2012-10-23 12:50:00
4:20 PM,73.4,48.2,41,30.01,6.2,South,9.2,-,N/A,,Scattered Clouds,180,2012-10-23 13:20:00
4:50 PM,73.4,50.0,44,30.01,6.2,SSW,10.4,-,N/A,,Scattered Clouds,200,2012-10-23 13:50:00
5:20 PM,71.6,50.0,46,30.01,6.2,SSW,11.5,-,N/A,,Scattered Clouds,200,2012-10-23 14:20:00
5:50 PM,71.6,50.0,46,30.01,6.2,SSW,8.1,-,N/A,,Scattered Clouds,200,2012-10-23 14:50:00
6:20 PM,69.8,50.0,49,30.01,6.2,SSW,5.8,-,N/A,,Scattered Clouds,200,2012-10-23 15:20:00
6:50 PM,69.8,50.0,49,30.01,6.2,Variable,2.3,-,N/A,,Mostly Cloudy,0,2012-10-23 15:50:00
7:20 PM,68.0,50.0,52,30.04,6.2,Variable,3.5,-,N/A,,Mostly Cloudy,0,2012-10-23 16:20:00
7:50 PM,66.2,50.0,56,30.04,6.2,Variable,2.3,-,N/A,,Mostly Cloudy,0,2012-10-23 16:50:00
8:20 PM,66.2,50.0,56,30.04,6.2,Variable,2.3,-,N/A,,Mostly Cloudy,0,2012-10-23 17:20:00
8:50 PM,64.4,51.8,64,30.04,6.2,Variable,3.5,-,N/A,,Mostly Cloudy,0,2012-10-23 17:50:00
9:00 PM,65,51,51,30.05,6,,3.5,,,,Scattered Clouds,,2012-10-23 18:00:00
9:20 PM,62.6,51.8,68,30.04,6.2,Variable,3.5,-,N/A,,Mostly Cloudy,0,2012-10-23 18:20:00
9:50 PM,62.6,51.8,68,30.04,6.2,ESE,4.6,-,N/A,,Scattered Clouds,110,2012-10-23 18:50:00
10:20 PM,60.8,51.8,72,30.04,6.2,ESE,4.6,-,N/A,,Scattered Clouds,110,2012-10-23 19:20:00
10:50 PM,60.8,51.8,72,30.04,6.2,SE,5.8,-,N/A,,Scattered Clouds,130,2012-10-23 19:50:00
11:20 PM,59.0,50.0,72,30.04,6.2,SE,5.8,-,N/A,,Scattered Clouds,130,2012-10-23 20:20:00
11:50 PM,59.0,51.8,77,30.04,6.2,ESE,6.9,-,N/A,,Scattered Clouds,110,2012-10-23 20:50:00